Temperature
16 14 14 14 14 15 16 15 14 14 15 15 14 14 15 16 16 16 16 17 17 18 18 19 19 19 18 18 17 17 16 15 14 13 12 12 11 11 11 10 10 9 9 9
14 14 14 15 15 15 16 15 14 14 15 15 14 13 13 15 16 16 16 16 17 17 18 18 18 18 18 17 17 16 16 15 14 14 13 13 12 11 11 10 9 9 9 8
14 15 16 16 17 16 16 15 14 14 13 13 14 14 14 15 15 16 16 16 16 16 16 17 17 17 17 16 16 15 15 15 14 14 13 12 11 11 10 10 10 10 9 8
14 14 16 16 16 16 15 15 15 15 13 12 13 13 13 15 15 14 15 15 16 16 16 16 16 16 16 15 15 15 14 14 13 13 12 12 11 11 11 11 10 10 9 8
15 16 17 16 16 16 15 15 14 14 13 12 12 12 12 14 14 14 14 14 15 15 15 15 15 15 15 15 15 14 14 13 13 12 12 11 11 11 10 10 9 9 9 8
14 16 17 16 16 16 15 14 13 11 10 12 13 12 13 12 13 13 13 14 14 14 14 14 14 14 14 14 14 13 13 13 12 11 11 11 10 10 9 9 9 9 8 8
15 16 16 16 16 15 14 13 12 13 12 13 13 13 13 14 13 13 13 14 14 14 14 13 13 13 13 13 13 13 12 12 12 11 11 10 10 9 9 9 8 8 8 8
15 15 15 15 15 15 15 13 13 13 12 11 12 13 13 13 13 14 14 14 14 13 13 13 13 12 12 12 12 12 12 11 11 11 10 10 10 9 9 9 8 8 8 8
14 15 15 15 15 15 15 13 12 11 12 11 11 12 13 13 12 12 13 13 13 13 13 13 12 12 12 12 11 11 11 11 10 10 10 9 9 9 9 8 8 8 8 7
15 15 15 14 15 14 14 12 11 12 12 11 11 11 12 14 13 12 12 12 13 13 13 12 12 11 11 11 11 10 10 10 10 9 9 9 8 8 8 8 8 7 7 7
16 14 14 14 13 14 13 13 12 10 10 10 10 11 13 13 12 12 12 13 13 12 12 12 11 11 11 10 10 10 10 9 9 9 8 8 8 7 7 7 7 7 6 6
13 11 12 12 13 13 12 12 11 11 11 9 9 11 12 11 12 12 12 12 12 12 12 11 11 10 10 10 9 9 9 8 8 8 8 7 7 7 7 6 6 6 6 5
13 11 12 12 13 13 13 13 12 11 10 8 9 11 12 11 11 12 12 12 11 11 11 10 10 9 9 9 9 8 8 8 7 7 7 7 7 6 6 6 5 5 5 5
12 11 11 12 12 13 12 12 12 11 9 8 9 11 12 11 11 11 11 11 11 10 10 9 9 9 8 8 8 7 7 7 7 7 6 6 6 6 5 5 5 4 4 4
11 11 11 11 11 11 11 11 11 10 9 9 10 10 11 11 10 10 10 10 10 9 9 8 8 8 8 7 7 7 6 6 6 6 6 5 5 5 5 4 4 4 3 3
10 10 11 11 11 10 10 10 10 10 9 9 10 10 10 10 10 10 10 9 9 8 8 8 7 7 7 6 6 6 6 6 5 5 5 5 4 4 4 4 3 3 3 2
9 9 9 8 9 9 8 9 9 9 9 9 9 9 9 9 9 9 9 8 8 7 7 7 6 6 6 6 5 5 5 5 5 4 4 4 3 3 3 3 2 2 2 1
8 8 7 7 8 8 10 10 10 10 10 9 9 8 8 8 9 9 8 8 7 7 6 6 6 5 5 5 5 4 4 4 4 4 3 3 2 2 2 1 1 1 0 -0
8 8 7 6 7 7 8 10 11 11 9 8 8 8 8 8 7 8 8 7 6 6 6 5 5 5 5 4 4 4 4 4 3 3 2 2 1 1 1 0 -0 -0 -1 -1
6 7 6 6 7 7 9 10 11 10 8 8 7 7 7 6 4 5 7 6 6 5 5 4 4 4 4 4 3 3 3 3 2 2 1 1 0 -0 -0 -1 -1 -1 -2 -2
6 6 5 5 6 7 8 9 10 9 8 7 7 7 6 5 5 6 5 5 5 4 4 4 4 3 3 3 3 2 2 2 1 1 0 0 -0 -1 -1 -2 -2 -2 -2 -2
6 5 4 4 5 6 9 9 8 7 7 7 7 6 6 5 5 5 5 4 4 4 3 3 3 3 3 2 2 1 1 1 0 -0 -1 -1 -1 -2 -2 -2 -3 -3 -3 -3
6 7 6 6 7 8 9 8 7 7 7 6 6 5 5 5 4 4 4 4 4 3 3 3 2 2 2 1 1 0 0 -0 -1 -1 -2 -2 -2 -2 -3 -3 -3 -4 -4 -4
6 6 5 5 6 7 7 7 6 6 6 5 5 5 4 4 4 3 3 3 3 3 2 2 1 1 1 1 0 -0 -1 -1 -2 -2 -3 -3 -3 -3 -4 -4 -4 -5 -5 -5
6 6 5 5 6 6 6 6 5 5 5 5 5 4 4 3 3 3 3 2 2 2 1 1 1 0 0 -0 -1 -1 -2 -2 -3 -3 -4 -4 -4 -4 -5 -5 -5 -5 -5 -5
4 5 5 5 6 5 5 5 5 5 5 5 4 4 4 3 3 2 2 2 2 1 1 0 0 -0 -1 -1 -1 -2 -2 -3 -4 -4 -4 -5 -5 -5 -5 -5 -5 -5 -5 -5
Wind_Speed
2 2 4 8 9 7 5 6 9 9 6 5 9 13 15 8 3 4 5 7 9 8 9 10 5 1 5 8 11 13 15 14 11 8 10 11 14 11 9 14 20 22 24 24
4 6 11 8 6 6 6 7 8 8 5 4 8 10 8 1 5 5 5 6 8 9 11 12 10 5 0 4 8 10 13 12 13 14 12 8 8 7 8 8 14 20 22 23
8 8 4 5 5 5 5 6 7 6 8 6 6 8 6 5 4 4 4 4 5 7 9 10 10 8 4 2 5 8 10 11 12 12 6 3 2 2 4 8 9 14 21 23
7 7 5 5 5 4 6 5 4 4 5 6 4 3 6 1 1 2 2 4 5 6 7 7 8 9 7 5 3 3 5 7 8 9 8 10 11 12 13 11 10 10 17 20
6 3 4 5 5 5 6 2 3 2 1 4 2 3 8 2 5 5 3 0 3 4 6 7 7 7 8 7 5 3 1 3 5 7 10 11 13 14 10 7 9 11 11 16
8 4 4 5 1 2 1 5 5 5 4 3 3 4 6 5 9 7 4 2 1 2 4 5 6 7 7 8 7 6 4 2 3 6 8 11 14 14 12 11 11 11 10 11
5 2 2 3 2 2 5 6 5 6 4 5 4 3 8 7 6 9 9 6 2 0 1 3 6 7 7 8 7 6 5 4 3 5 8 10 13 13 14 14 12 12 10 11
3 5 4 3 5 4 3 6 4 3 4 6 7 5 7 5 4 7 6 5 3 2 1 1 3 3 5 7 7 6 6 6 5 5 7 8 10 9 11 12 12 12 12 12
5 5 1 2 2 5 3 4 6 5 2 4 7 7 5 4 6 5 4 3 3 3 2 1 2 3 4 6 6 6 6 7 7 7 7 8 8 9 11 12 10 11 12 11
7 3 2 1 2 2 3 6 5 3 2 5 7 7 5 4 4 4 5 5 5 3 2 2 3 3 4 5 5 6 6 6 7 7 7 7 8 9 10 9 11 11 12 12
4 4 2 1 6 7 5 4 4 4 5 4 5 7 5 6 6 6 6 6 5 3 3 3 3 4 5 6 6 6 7 7 7 8 7 8 9 9 8 9 11 11 11 11
4 5 3 7 5 4 7 8 8 4 5 5 4 8 5 5 4 4 3 3 3 3 3 3 3 5 6 7 7 7 7 7 8 8 8 8 9 9 9 10 11 10 11 11
6 5 2 7 3 1 1 4 5 4 3 5 5 8 2 1 2 1 0 1 3 4 4 3 4 6 7 7 7 8 8 8 8 8 8 9 9 9 10 10 11 10 10 11
6 5 7 8 7 3 4 5 5 5 5 7 11 12 9 9 7 4 2 3 3 4 4 4 5 7 8 7 8 8 9 8 8 8 8 9 10 10 10 10 11 11 10 11
6 5 6 7 6 5 8 11 9 10 10 11 10 11 12 8 4 1 2 4 4 5 6 6 7 7 8 8 8 8 9 9 8 9 9 10 10 10 10 11 11 11 11 11
4 5 3 4 6 7 11 16 13 12 10 11 12 12 5 0 2 1 3 3 4 6 7 8 9 9 9 9 9 9 9 9 8 9 10 11 11 11 11 11 11 11 11 12
6 7 4 4 4 8 10 10 7 6 6 8 8 5 0 2 2 3 2 2 5 8 9 9 9 9 9 9 8 9 9 9 9 10 11 11 11 12 12 12 12 12 12 11
8 8 5 2 2 8 8 4 4 4 0 2 3 2 2 2 5 5 2 2 7 8 8 9 8 9 9 8 9 9 9 10 10 11 11 11 12 12 13 12 13 13 12 11
6 8 5 4 4 9 10 5 2 4 2 3 4 1 2 4 4 4 3 4 6 8 9 8 9 9 9 10 10 10 10 10 11 12 12 12 12 13 14 14 14 13 13 13
3 5 6 5 5 8 8 4 1 3 3 0 2 2 4 4 6 5 6 8 9 9 8 9 9 9 10 10 10 10 11 11 12 13 13 13 13 13 15 15 15 13 12 14
4 4 6 6 6 9 8 5 2 3 4 1 1 1 2 2 6 8 9 9 9 9 10 9 10 9 10 10 10 11 12 13 13 14 14 14 13 13 14 14 13 14 14 14
8 7 7 7 6 9 4 3 4 3 1 1 2 4 6 7 9 9 8 8 9 9 9 9 9 11 10 10 10 13 15 15 14 14 14 14 13 13 13 14 14 13 14 15
8 9 8 10 9 2 3 5 4 3 2 3 4 6 6 7 7 7 7 8 8 9 9 9 10 12 11 10 10 14 17 16 15 15 15 14 14 12 12 13 15 14 13 12
4 3 5 5 4 3 5 5 3 3 4 5 5 6 5 6 7 8 8 8 9 9 10 9 11 14 15 13 12 13 16 15 15 16 16 14 14 14 12 11 12 12 13 13
5 3 3 4 2 3 3 3 3 3 2 2 3 4 4 5 7 7 8 9 9 9 9 9 11 14 17 16 15 13 13 14 15 16 15 14 13 14 14 12 12 14 13 15
5 6 6 6 4 4 3 3 1 2 3 4 5 6 6 5 7 8 9 9 9 11 11 12 13 15 16 16 16 15 13 13 15 16 14 13 13 13 13 14 15 19 20 25
Wind_Direction
30 74 230 226 209 216 237 251 274 270 282 300 271 280 292 307 103 89 54 35 29 12 352 4 358 254 195 196 199 202 204 206 194 192 200 207 217 216 214 216 215 212 212 210
13 262 242 231 220 218 240 274 283 294 328 305 291 296 304 345 131 134 95 52 35 22 14 11 15 28 169 212 212 209 208 203 200 207 208 209 215 218 218 218 217 215 215 214
223 244 250 198 218 251 266 247 262 286 326 347 354 344 359 28 67 72 55 45 35 32 21 9 10 13 12 307 237 223 218 211 209 207 196 195 191 252 223 221 223 219 217 217
239 252 213 216 235 204 270 256 247 301 357 312 24 310 287 272 85 85 52 36 36 27 24 18 13 10 2 336 310 258 233 219 213 199 198 203 214 227 230 228 227 222 218 220
265 227 197 225 236 194 239 308 283 264 160 317 314 197 280 245 206 211 213 94 51 36 32 22 12 6 5 1 1 347 304 230 214 205 209 215 230 239 244 236 233 232 226 224
247 248 217 211 184 178 6 23 40 49 67 321 255 181 277 218 205 193 197 193 97 44 29 18 10 15 9 8 12 12 11 316 234 217 220 224 235 243 249 247 243 243 238 233
310 264 225 140 113 60 68 57 10 352 3 270 288 234 255 257 201 169 172 181 190 104 20 6 15 14 6 5 2 1 359 329 288 241 235 234 239 244 247 251 251 250 250 245
293 292 232 199 186 186 184 137 153 246 265 292 318 262 273 311 101 120 142 161 185 228 260 331 355 0 351 352 354 350 340 321 308 280 261 252 247 248 253 254 253 254 255 253
196 263 359 168 216 163 158 165 170 147 272 277 287 295 319 33 78 106 136 162 200 230 238 291 333 350 347 345 341 333 324 314 308 296 285 276 264 254 256 259 258 260 260 261
160 232 293 33 72 34 148 147 105 138 233 277 292 288 234 198 182 182 192 209 227 248 279 293 321 335 335 331 328 334 328 311 304 303 293 285 279 269 264 267 266 264 264 263
134 175 290 320 206 206 161 178 160 150 166 184 269 275 232 193 191 194 213 223 233 249 264 286 311 321 326 329 330 330 328 323 316 310 302 297 291 287 281 273 271 270 270 269
128 130 243 263 253 212 187 188 155 168 229 195 209 268 262 166 175 186 215 254 272 278 293 308 321 327 328 326 323 321 318 314 308 305 306 304 300 299 293 286 282 280 277 274
132 119 7 337 346 51 185 184 169 148 155 192 205 259 272 168 4 11 299 281 303 318 326 333 328 322 316 313 312 311 309 305 304 307 310 310 307 304 298 293 292 289 284 282
116 144 182 213 215 205 267 257 224 188 208 232 228 250 280 303 318 325 350 333 338 337 337 328 314 306 302 301 302 303 303 302 306 310 311 308 304 299 295 293 293 290 287 286
119 185 224 245 252 246 249 257 247 227 216 231 249 252 271 280 273 260 329 345 -0 349 335 319 307 300 299 301 302 302 303 305 308 310 309 303 299 297 295 294 292 289 286 284
124 169 204 273 273 281 276 266 256 246 232 234 257 271 280 90 98 24 350 355 344 321 311 305 304 304 304 301 300 301 302 303 305 305 301 298 299 299 297 295 292 290 288 286
157 151 156 265 312 342 281 257 231 218 218 207 226 241 54 37 351 315 303 325 313 302 298 299 300 297 296 294 293 295 293 298 302 300 298 298 299 298 296 296 295 292 290 286
153 149 157 209 12 254 246 243 226 211 280 87 106 85 81 284 280 272 239 298 301 298 299 301 299 297 295 293 295 296 297 301 302 300 298 297 298 297 296 296 294 292 288 286
164 150 150 159 224 277 290 281 204 161 130 68 104 84 319 299 315 298 265 307 300 298 297 295 294 294 296 298 299 302 303 304 304 302 299 298 297 297 298 297 296 294 293 291
92 138 148 161 198 244 253 269 297 93 206 105 92 18 333 1 344 289 294 308 303 302 302 302 303 302 303 303 306 307 306 307 304 302 300 298 296 295 296 296 296 295 292 290
117 141 173 176 215 259 257 270 120 195 240 157 72 319 309 268 246 267 288 292 291 295 297 300 304 304 301 304 309 306 305 303 301 301 301 299 296 294 295 295 295 296 295 293
171 167 181 165 201 250 262 115 142 193 166 192 260 262 263 261 270 281 289 293 302 304 304 307 308 306 304 306 308 306 306 304 303 302 301 299 297 297 301 298 298 296 296 296
194 188 182 191 208 208 86 115 124 138 196 249 255 262 265 274 282 292 294 301 302 301 303 306 306 307 308 305 301 302 305 306 306 304 302 302 301 297 296 297 299 300 298 296
247 155 162 220 244 142 116 124 144 199 217 241 252 265 273 282 290 297 297 300 304 303 307 309 311 312 313 311 303 296 302 305 305 305 306 305 304 303 299 295 295 297 297 296
229 150 164 240 247 136 167 184 211 234 251 283 296 283 287 294 297 296 300 302 304 305 305 306 308 308 310 311 309 305 305 307 307 306 305 305 302 302 303 299 296 296 289 289
206 186 192 230 216 184 231 249 273 326 329 324 322 319 316 307 298 301 301 299 301 304 306 308 306 307 309 310 310 310 308 306 308 310 309 307 305 304 303 304 303 297 295 297
Height
1538 1542 1544 1540 1539 1538 1538 1540 1541 1534 1525 1525 1523 1519 1510 1506 1507 1507 1505 1503 1501 1499 1498 1496 1494 1493 1493 1494 1495 1497 1498 1500 1501 1502 1503 1504 1503 1504 1505 1506 1507 1508 1510 1511
1542 1542 1534 1532 1533 1535 1536 1538 1538 1531 1525 1525 1523 1519 1510 1505 1507 1507 1506 1505 1503 1501 1499 1497 1496 1495 1494 1494 1494 1494 1495 1496 1497 1498 1499 1500 1500 1500 1501 1502 1502 1502 1503 1504
1541 1534 1528 1530 1531 1533 1534 1535 1534 1532 1529 1524 1524 1520 1514 1510 1509 1509 1508 1507 1505 1503 1501 1499 1497 1496 1495 1494 1493 1493 1493 1493 1494 1495 1496 1496 1496 1495 1495 1495 1495 1496 1496 1496
1535 1529 1528 1529 1530 1530 1536 1528 1529 1529 1534 1537 1532 1537 1522 1514 1512 1511 1509 1508 1507 1505 1503 1501 1499 1497 1495 1494 1492 1491 1491 1491 1491 1492 1492 1491 1490 1488 1488 1489 1488 1489 1489 1488
1532 1527 1526 1528 1527 1526 1528 1526 1528 1528 1532 1538 1534 1537 1527 1515 1515 1512 1510 1509 1508 1506 1505 1503 1500 1498 1496 1495 1493 1491 1490 1489 1489 1489 1488 1487 1486 1484 1483 1483 1481 1480 1480 1479
1528 1524 1523 1524 1524 1525 1526 1528 1531 1536 1540 1541 1530 1536 1527 1517 1510 1509 1510 1509 1509 1507 1506 1504 1502 1500 1498 1495 1493 1491 1490 1488 1487 1486 1485 1484 1482 1480 1478 1476 1474 1473 1471 1470
1527 1524 1522 1522 1525 1526 1528 1537 1546 1542 1547 1540 1529 1529 1522 1507 1502 1504 1507 1509 1509 1508 1507 1505 1503 1500 1498 1496 1494 1492 1490 1488 1487 1485 1483 1481 1479 1476 1473 1471 1468 1466 1463 1461
1532 1532 1523 1522 1523 1527 1528 1535 1547 1550 1552 1545 1531 1528 1516 1506 1502 1504 1507 1509 1509 1508 1506 1505 1503 1501 1499 1497 1495 1492 1490 1488 1486 1483 1481 1478 1475 1472 1469 1466 1463 1459 1456 1453
1531 1529 1521 1521 1522 1524 1528 1533 1535 1546 1547 1548 1540 1527 1515 1508 1507 1508 1509 1509 1508 1507 1506 1504 1503 1501 1499 1496 1494 1492 1489 1486 1484 1481 1478 1474 1471 1468 1464 1461 1457 1453 1450 1447
1520 1527 1522 1522 1523 1524 1525 1530 1540 1543 1548 1552 1543 1532 1521 1511 1510 1510 1509 1508 1507 1506 1505 1503 1502 1500 1498 1495 1493 1490 1487 1484 1480 1477 1473 1470 1466 1463 1459 1455 1451 1447 1443 1439
1517 1526 1527 1525 1525 1525 1529 1530 1533 1542 1547 1551 1550 1535 1510 1507 1507 1507 1507 1506 1505 1504 1503 1502 1501 1498 1496 1493 1490 1487 1483 1480 1476 1472 1468 1464 1460 1457 1452 1448 1444 1440 1436 1432
1518 1528 1532 1527 1521 1520 1523 1525 1531 1539 1541 1544 1548 1533 1505 1505 1504 1504 1504 1504 1504 1503 1502 1500 1499 1496 1494 1490 1487 1483 1479 1475 1471 1467 1463 1459 1455 1450 1446 1441 1437 1433 1428 1424
1517 1527 1535 1531 1528 1522 1521 1522 1525 1530 1536 1543 1545 1527 1504 1504 1503 1503 1503 1503 1503 1502 1500 1498 1496 1494 1491 1487 1483 1479 1475 1471 1466 1462 1457 1453 1449 1444 1439 1434 1429 1425 1420 1415
1514 1524 1530 1531 1527 1522 1523 1521 1521 1527 1536 1536 1529 1515 1506 1503 1503 1503 1502 1502 1501 1500 1498 1496 1493 1490 1487 1483 1479 1474 1470 1466 1461 1457 1452 1447 1442 1437 1432 1427 1422 1417 1412 1406
1514 1523 1523 1522 1521 1521 1520 1519 1518 1521 1521 1522 1514 1511 1504 1502 1501 1501 1501 1500 1499 1497 1495 1493 1490 1486 1482 1478 1473 1469 1465 1461 1456 1451 1446 1441 1436 1431 1425 1419 1414 1408 1403 1398
1514 1520 1521 1521 1518 1518 1517 1510 1510 1511 1511 1510 1507 1504 1500 1499 1500 1500 1499 1498 1497 1495 1492 1489 1485 1481 1477 1473 1468 1464 1459 1455 1450 1445 1440 1434 1429 1423 1417 1411 1405 1399 1393 1388
1516 1520 1524 1528 1523 1521 1517 1504 1502 1503 1501 1502 1503 1502 1499 1499 1499 1498 1497 1496 1494 1491 1488 1484 1480 1476 1472 1468 1463 1458 1453 1449 1443 1438 1433 1427 1421 1414 1408 1402 1396 1390 1384 1378
1513 1519 1525 1529 1525 1526 1505 1496 1496 1497 1498 1497 1498 1499 1499 1499 1498 1496 1495 1493 1490 1487 1483 1480 1476 1471 1467 1462 1457 1453 1447 1442 1436 1431 1425 1419 1413 1406 1400 1393 1387 1381 1375 1368
1506 1513 1523 1530 1528 1519 1503 1494 1492 1494 1498 1498 1499 1499 1498 1497 1495 1493 1492 1490 1487 1483 1479 1475 1471 1466 1461 1457 1452 1446 1441 1435 1429 1423 1417 1411 1405 1398 1391 1384 1378 1372 1365 1358
1507 1508 1519 1525 1524 1520 1500 1492 1490 1493 1499 1499 1497 1497 1496 1494 1496 1492 1489 1486 1482 1479 1475 1470 1466 1461 1456 1451 1446 1440 1434 1428 1422 1415 1409 1403 1397 1390 1383 1376 1369 1362 1356 1349
1510 1513 1517 1521 1521 1508 1494 1490 1490 1500 1499 1497 1496 1495 1494 1493 1492 1488 1485 1481 1478 1474 1470 1465 1461 1456 1451 1446 1440 1433 1427 1421 1415 1408 1401 1394 1388 1382 1374 1367 1360 1353 1346 1339
1503 1511 1515 1517 1518 1507 1489 1489 1493 1495 1494 1494 1493 1492 1491 1489 1486 1483 1479 1476 1472 1468 1464 1460 1455 1450 1446 1441 1434 1427 1420 1414 1407 1399 1392 1385 1379 1372 1365 1358 1350 1344 1337 1330
1494 1493 1496 1498 1495 1490 1488 1489 1491 1492 1492 1491 1490 1488 1487 1484 1481 1478 1474 1471 1467 1464 1459 1455 1450 1444 1438 1434 1428 1420 1413 1405 1398 1390 1382 1375 1369 1362 1356 1349 1341 1334 1328 1322
1487 1486 1489 1491 1488 1487 1488 1489 1490 1490 1489 1488 1486 1484 1482 1479 1476 1473 1470 1466 1462 1458 1454 1449 1443 1437 1431 1425 1420 1414 1406 1398 1389 1381 1373 1366 1359 1352 1346 1340 1333 1327 1320 1315
1483 1484 1486 1487 1486 1486 1487 1487 1487 1486 1485 1483 1481 1479 1477 1475 1472 1469 1465 1462 1458 1453 1448 1443 1438 1431 1424 1417 1411 1405 1398 1390 1381 1372 1365 1358 1351 1344 1336 1330 1325 1319 1313 1310
1480 1481 1484 1484 1482 1483 1484 1484 1483 1482 1480 1479 1477 1475 1473 1471 1468 1465 1461 1457 1453 1448 1443 1437 1431 1424 1417 1410 1402 1396 1389 1382 1373 1364 1357 1350 1342 1335 1329 1322 1315 1310 1307 1301